Tracking 25963 objects as of 12-Aug-2022
HD Live streaming from Space Station
objects crossing your sky now

RESURS O1 DEB

Track RESURS O1 DEB now!
10-day predictions


NORAD ID: 46883
Int'l Code: 1994-074BP
Perigee: 579.6 km
Apogee: 589.0 km
Inclination: 97.9 °
Period: 96.2 minutes
Semi major axis: 6955 km
RCS: Unknown
Launch date: November 4, 1994
Source: Commonwealth of Independent States (former USSR) (CIS)
Launch site: TYURATAM MISSILE AND SPACE COMPLEX (TTMTR)

Note: This is SATELLITE DEBRIS
aabbcc
Your satellite tracking list
Your tracking list is empty




NASA's NSSDC Master Catalog

Two Line Element Set (TLE):
1 46883U 94074BP  22223.64846018  .00027354  00000-0  23930-2 0  9991
2 46883  97.8860 276.1718 0006808 120.5253 239.6641 14.96677531 95858
Source of the keplerian elements: AFSPC